This is the latest recevied weather packets stored in our database for station/object K7DC. If no packets are shown the sender has not sent any weather packets the latest 10 day(s).
| Time | Temp. | Humidity | Pressure | Rain* | Wind** | Luminosity | Snow |
|---|---|---|---|---|---|---|---|
| 1778141784 | 14.44° C | 44% | 1015.6 hPa | 0 mm | - | 0 W/m² | - |
| 1778141481 | 14.44° C | 43% | 1015.4 hPa | 0 mm | - | 0 W/m² | - |
| 1778141178 | 14.44° C | 40% | 1015.6 hPa | 0 mm | - | 0 W/m² | - |
| 1778140874 | 14.44° C | 40% | 1015.6 hPa | 0 mm | - | 0 W/m² | - |
| 1778140574 | 14.44° C | 41% | 1015.7 hPa | 0 mm | - | 0 W/m² | - |
| 1778140271 | 14.44° C | 41% | 1015.8 hPa | 0 mm | - | 0 W/m² | - |
| 1778139968 | 15° C | 39% | 1015.7 hPa | 0 mm | - | 0 W/m² | - |
| 1778139666 | 14.44° C | 41% | 1015.9 hPa | 0 mm | - | 0 W/m² | - |
| 1778139362 | 15° C | 42% | 1015.7 hPa | 0 mm | - | 0 W/m² | - |
| 1778139058 | 15° C | 43% | 1015.6 hPa | 0 mm | - | 0 W/m² | - |
| 1778138756 | 15° C | 42% | 1015.7 hPa | 0 mm | - | 0 W/m² | - |
| 1778138453 | 15° C | 42% | 1015.7 hPa | 0 mm | - | 0 W/m² | - |
| 1778138150 | 15° C | 43% | 1015.7 hPa | 0 mm | - | 0 W/m² | - |
| 1778137847 | 15° C | 43% | 1015.8 hPa | 0 mm | - | 0 W/m² | - |
| 1778137544 | 15° C | 43% | 1015.7 hPa | 0 mm | - | 0 W/m² | - |
| 1778137241 | 15° C | 44% | 1015.7 hPa | 0 mm | - | 0 W/m² | - |
| 1778136937 | 15° C | 43% | 1015.5 hPa | 0 mm | - | 0 W/m² | - |
| 1778136634 | 15° C | 40% | 1015.6 hPa | 0 mm | - | 0 W/m² | - |
| 1778136332 | 15° C | 35% | 1015.7 hPa | 0 mm | - | 0 W/m² | - |
| 1778136031 | 15.56° C | 36% | 1015.6 hPa | 0 mm | - | 0 W/m² | - |
| 1778135727 | 15.56° C | 36% | 1015.5 hPa | 0 mm | - | 0 W/m² | - |
| 1778135425 | 16.11° C | 35% | 1015.5 hPa | 0 mm | - | 0 W/m² | - |
| 1778135121 | 16.67° C | 33% | 1015.6 hPa | 0 mm | - | 0 W/m² | - |
| 1778134819 | 16.67° C | 33% | 1015.7 hPa | 0 mm | - | 0 W/m² | - |
| 1778134517 | 17.22° C | 33% | 1015.6 hPa | 0 mm | - | 0 W/m² | - |
* Rain latest hour (hover to see other rain measurements)
** Current wind speed in m/s (hover to see current wind gust speed)